User: anonymous   Login
Location: M.A.R.S.Observatory
(35.4031°N, 81.5481°W)
Time: 12:50:07
(UTC-05:00)
Language:

SL-8 R/B - Orbit

View from above orbital plane
View from above orbital plane
View from above satellite
View from above satellite

Ground track
Ground track

The orbit data is extracted from the following two-line orbital elements,

1 33066U 08031G   16039.47268213  .00000194  00000-0  65228-4 0  9993
2 33066  48.4432 264.1617 0007725 188.2670 238.4559 14.69370475410002
Epoch (UTC): 08 February 2016 11:20:39
Eccentricity: 0.0007725
inclination: 48.4432°
perigee height: 657 km
apogee height: 668 km
right ascension of ascending node: 264.1617°
argument of perigee: 188.2670°
revolutions per day: 14.69370475
mean anomaly at epoch: 238.4559°
orbit number at epoch: 41000

The dashed part of the orbit path shows where the satellite is in the earth's shadow,  

DLR